User: anonymous   Login
Location: Unspecified
(0.0000°N, 0.0000°E)
Time: 21:12:42
(UTC+00:00)
Language:

FALCON 9 R/B - Orbit

View from above orbital plane
View from above orbital plane
View from above satellite
View from above satellite

Ground track
Ground track

The orbit data is extracted from the following two-line orbital elements,

1 41590U 16038C   24197.20546145  .00000034  00000-0  28958-2 0  9998
2 41590  21.8245 117.8558 7925720  36.4370 356.9964  1.44320803 35884
Epoch (UTC): 15 July 2024 04:55:51
Eccentricity: 0.7925720
inclination: 21.8245°
perigee height: 483 km
apogee height: 52913 km
right ascension of ascending node: 117.8558°
argument of perigee: 36.4370°
revolutions per day: 1.44320803
mean anomaly at epoch: 356.9964°
orbit number at epoch: 3588

The dashed part of the orbit path shows where the satellite is in the earth's shadow,  

DLR